This is the latest recevied weather packets stored in our database for station/object VK5FR. If no packets are shown the sender has not sent any weather packets the latest 1 day(s).
| Time | Temp. | Humidity | Pressure | Rain* | Wind** | Luminosity | Snow |
|---|---|---|---|---|---|---|---|
| 1778033421 | 16.67° C | 80% | 1020.9 hPa | 0 mm | - | - | - |
| 1778033119 | 16.67° C | 80% | 1021.1 hPa | 0 mm | - | - | - |
| 1778032210 | 16.67° C | 79% | 1021.3 hPa | 0 mm | - | - | - |
| 1778031908 | 17.22° C | 80% | 1021.2 hPa | 0 mm | - | - | - |
| 1778030997 | 17.22° C | 81% | 1021.1 hPa | 0 mm | - | - | - |
| 1778030694 | 17.22° C | 80% | 1021.4 hPa | 0 mm | - | - | - |
| 1778030391 | 17.22° C | 80% | 1021.2 hPa | 0 mm | - | - | - |
| 1778030088 | 17.22° C | 80% | 1021.2 hPa | 0 mm | - | - | - |
| 1778029785 | 17.22° C | 79% | 1021.2 hPa | 0 mm | - | - | - |
| 1778029484 | 17.22° C | 79% | 1021.3 hPa | 0 mm | - | - | - |
| 1778028878 | 16.67° C | 79% | 1021.2 hPa | 0 mm | - | - | - |
| 1778027360 | 17.22° C | 78% | 1021 hPa | 0 mm | - | - | - |
| 1778027056 | 16.67° C | 78% | 1021.3 hPa | 0 mm | - | - | - |
| 1778026449 | 16.67° C | 78% | 1021.1 hPa | 0 mm | - | - | - |
| 1778026146 | 16.67° C | 79% | 1021.1 hPa | 0 mm | - | - | - |
| 1778022211 | 16.11° C | 79% | 1021.1 hPa | 0 mm | - | - | - |
| 1778020695 | 16.67° C | 80% | 1020.8 hPa | 0 mm | - | - | - |
| 1778018572 | 16.67° C | 79% | 1020.4 hPa | 0 mm | - | - | - |
| 1778018270 | 16.11° C | 78% | 1020.5 hPa | 0 mm | - | - | - |
| 1778016150 | 16.11° C | 80% | 1020.4 hPa | 0 mm | - | - | - |
| 1778015847 | 16.11° C | 81% | 1020.3 hPa | 0 mm | - | - | - |
| 1778014635 | 16.11° C | 79% | 1020.3 hPa | 0 mm | - | - | - |
| 1778012513 | 16.11° C | 76% | 1020.4 hPa | 0 mm | - | - | - |
| 1778011302 | 16.11° C | 76% | 1020.2 hPa | 0 mm | - | - | - |
* Rain latest hour (hover to see other rain measurements)
** Current wind speed in m/s (hover to see current wind gust speed)